Voltar ao catálogo

THOR BURNER 2 R/B

AtivoSSO
NORAD 5904·ROCKET BODY·🇺🇸 United States

Lançado Mar 24, 1972 de Vandenberg Space Force Base

Loading…

Próximas Passagens (próximas 24 horas)

TLE

AtualizadoSource: Space-Track

Época: Sep 14, 2026, 17:54 UTC

1 05904U 72018B   26257.74620032  .00000050  00000-0  41735-4 0  9991
2 05904  99.1144  75.3532 0047257 160.5150 199.7848 14.24523049825618

Acompanhe THOR BURNER 2 R/B em tempo real com AllMySat

Download on the App Store